Weather History for KLUF - June, 2013

Change the Weather History Date:

Sunday, June 16, 2013

  Actual Average Record
Temperature  
Mean Temperature 90 °F -  
Max Temperature 106 °F 106 °F 118 °F (1974)
Min Temperature 74 °F 66 °F 49 °F (1923)
Cooling Degree Days 25    
Growing Degree Days 40 (Base 50)    
Moisture  
Dew Point 32 °F    
Average Humidity 12    
Maximum Humidity 26    
Minimum Humidity 7    
Precipitation  
Precipitation 0.00 in - - ()
Sea Level Pressure  
Sea Level Pressure 29.79 in    
Wind  
Wind Speed 6 mph (SW)    
Max Wind Speed 14 mph    
Max Gust Speed 18 mph    
Visibility 10 miles    
Events      
Averages and records for this station are not official NWS values.
T = Trace of Precipitation, MM = Missing Value Source: NWS Daily Summary

Daily Weather History Graph

Daily Weather History Graph

Search for Another Location

Airport or City:

Trip Planner

Search our weather history database for the weather conditions in past years. The results will help you decide how hot, cold, wet, or windy it might be!

Date:

Astronomy

Jun. 16, 2013 Rise Set
Actual Time 5:19 AM MST 7:41 PM MST
Civil Twilight 4:50 AM MST 8:10 PM MST
Nautical Twilight 4:14 AM MST 8:46 PM MST
Astronomical Twilight 3:35 AM MST 9:25 PM MST
Moon 12:38 PM MST (6/16) 12:07 AM MST (6/16)
Length of Visible Light 15h 20m
Length of Day
14h 22m
Waxing Crescent, 51% of the Moon is Illuminated
Jun 16
Waxing Crescent
Jun 23
Full
Jun 29
Last Quarter
Jul 8
New
Jul 15
First Quarter

Hourly Weather History & Observations

Time (MST) Temp. Dew Point Humidity Pressure Visibility Wind Dir Wind Speed Gust Speed Precip Events Conditions
12:58 AM 87.4 °F 31.5 °F 13% 29.76 in 10.0 mi SSE 2.3 mph - N/A   Clear
1:58 AM 88.5 °F 28.2 °F 11% 29.76 in 10.0 mi SW 11.5 mph - N/A   Clear
2:58 AM 87.4 °F 26.1 °F 11% 29.78 in 10.0 mi East 3.5 mph - N/A   Clear
3:58 AM 82.9 °F 30.9 °F 15% 29.80 in 10.0 mi West 5.8 mph - N/A   Clear
4:58 AM 74.8 °F 37.9 °F 26% 29.81 in 10.0 mi North 1.2 mph - N/A   Clear
5:58 AM 76.1 °F 36.1 °F 23% 29.83 in 10.0 mi NW 2.3 mph - N/A   Clear
6:58 AM 79.5 °F 37.9 °F 22% 29.84 in 10.0 mi NNW 6.9 mph - N/A   Clear
7:58 AM 85.3 °F 37.8 °F 18% 29.85 in 10.0 mi Calm Calm - N/A   Clear
8:58 AM 89.6 °F 34.0 °F 14% 29.87 in 10.0 mi Calm Calm - N/A   Clear
9:58 AM 93.9 °F 27.5 °F 9% 29.86 in 10.0 mi SSE 2.3 mph - N/A   Clear
10:58 AM 96.6 °F 29.7 °F 9% 29.86 in 10.0 mi South 8.1 mph - N/A   Clear
11:58 AM 99.5 °F 25.7 °F 7% 29.83 in 10.0 mi Variable 4.6 mph - N/A   Clear
12:58 PM 101.5 °F 25.9 °F 7% 29.81 in 10.0 mi SW 8.1 mph - N/A   Clear
1:58 PM 103.3 °F 28.6 °F 7% 29.79 in 10.0 mi SW 10.4 mph - N/A   Clear
2:58 PM 104.9 °F 29.8 °F 7% 29.77 in 10.0 mi SW 12.7 mph - N/A   Clear
3:58 PM 106.2 °F 30.7 °F 7% 29.75 in 10.0 mi SSW 10.4 mph 18.4 mph N/A   Clear
4:58 PM 105.8 °F 30.6 °F 7% 29.74 in 10.0 mi SSW 13.8 mph - N/A   Clear
5:58 PM 104.9 °F 29.8 °F 7% 29.73 in 10.0 mi SW 11.5 mph - N/A   Clear
6:58 PM 102.9 °F 32.2 °F 9% 29.74 in 10.0 mi WSW 9.2 mph - N/A   Clear
7:58 PM 97.2 °F 35.1 °F 11% 29.74 in 10.0 mi WSW 6.9 mph - N/A   Clear
8:58 PM 94.3 °F 35.1 °F 12% 29.75 in 10.0 mi West 8.1 mph - N/A   Clear
9:58 PM 92.1 °F 35.8 °F 14% 29.77 in 10.0 mi WNW 5.8 mph - N/A   Clear
10:58 PM 90.0 °F 33.4 °F 13% 29.77 in 10.0 mi South 8.1 mph - N/A   Clear
11:58 PM 88.7 °F 36.1 °F 16% 29.76 in 10.0 mi SSW 11.5 mph - N/A   Clear